contact:dominique.lefevre@mio.osupytheas.fr, maurice.libes@osupytheas.fr, didier.mallarino@osupytheas.fr
Project:EMSO http://www.emso-fr.org/EMSO-France
Depth: 2436.0 m
Title:EMSO Ligure Ouest : Data MII capteur MICROCAT
DateTime_Computer,Latitude,Longitude,Temperature,Conductivity,Pressure,DateTime_Instrument
DateTime_Computer,Latitude,Longitude,degC,S m-1,dbar,DateTime_Instrument
2023-03-30T00:00:47Z,42.805,6.029,13.3019,4.60079,2470.777,2023-3-30T02:03:34Z
2023-03-30T00:03:50Z,42.805,6.029,13.3017,4.60079,2470.777,2023-3-30T02:06:37Z
2023-03-30T00:06:53Z,42.805,6.029,13.3019,4.60078,2470.763,2023-3-30T02:09:40Z
2023-03-30T00:09:56Z,42.805,6.029,13.3019,4.60078,2470.777,2023-3-30T02:12:43Z
2023-03-30T00:12:59Z,42.805,6.029,13.3021,4.60079,2470.8,2023-3-30T02:15:47Z
2023-03-30T00:16:02Z,42.805,6.029,13.3018,4.60079,2470.763,2023-3-30T02:18:50Z
2023-03-30T00:19:05Z,42.805,6.029,13.3021,4.60078,2470.787,2023-3-30T02:21:53Z
2023-03-30T00:22:08Z,42.805,6.029,13.3015,4.60079,2470.777,2023-3-30T02:24:56Z
2023-03-30T00:25:11Z,42.805,6.029,13.3022,4.60079,2470.763,2023-3-30T02:27:59Z
2023-03-30T00:28:14Z,42.805,6.029,13.3016,4.60079,2470.787,2023-3-30T02:31:02Z
2023-03-30T00:31:17Z,42.805,6.029,13.3016,4.60079,2470.763,2023-3-30T02:34:05Z
2023-03-30T00:34:20Z,42.805,6.029,13.3020,4.60080,2470.777,2023-3-30T02:37:08Z
2023-03-30T00:37:24Z,42.805,6.029,13.3020,4.60080,2470.777,2023-3-30T02:40:11Z
2023-03-30T00:40:27Z,42.805,6.029,13.3021,4.60080,2470.777,2023-3-30T02:43:14Z
2023-03-30T00:43:30Z,42.805,6.029,13.3019,4.60079,2470.763,2023-3-30T02:46:17Z
2023-03-30T00:46:33Z,42.805,6.029,13.3021,4.60079,2470.81,2023-3-30T02:49:20Z
2023-03-30T00:49:36Z,42.805,6.029,13.3021,4.60078,2470.74,2023-3-30T02:52:24Z
2023-03-30T00:52:39Z,42.805,6.029,13.3022,4.60079,2470.763,2023-3-30T02:55:27Z
2023-03-30T00:55:42Z,42.805,6.029,13.3021,4.60079,2470.763,2023-3-30T02:58:30Z
2023-03-30T00:58:45Z,42.805,6.029,13.3015,4.60079,2470.777,2023-3-30T03:01:33Z
2023-03-30T01:01:48Z,42.805,6.029,13.3019,4.60078,2470.763,2023-3-30T03:04:36Z
2023-03-30T01:04:51Z,42.805,6.029,13.3021,4.60079,2470.8,2023-3-30T03:07:39Z
2023-03-30T01:07:54Z,42.805,6.029,13.3023,4.60079,2470.777,2023-3-30T03:10:42Z
2023-03-30T01:10:57Z,42.805,6.029,13.3022,4.60078,2470.763,2023-3-30T03:13:45Z
2023-03-30T01:14:01Z,42.805,6.029,13.3019,4.60079,2470.787,2023-3-30T03:16:48Z
2023-03-30T01:17:04Z,42.805,6.029,13.3021,4.60079,2470.796,2023-3-30T03:19:51Z
2023-03-30T01:20:07Z,42.805,6.029,13.3020,4.60079,2470.787,2023-3-30T03:22:54Z
2023-03-30T01:23:10Z,42.805,6.029,13.3020,4.60079,2470.824,2023-3-30T03:25:57Z
2023-03-30T01:26:13Z,42.805,6.029,13.3019,4.60079,2470.787,2023-3-30T03:29:01Z
2023-03-30T01:29:16Z,42.805,6.029,13.3018,4.60078,2470.787,2023-3-30T03:32:04Z
2023-03-30T01:32:19Z,42.805,6.029,13.3021,4.60079,2470.824,2023-3-30T03:35:07Z
2023-03-30T01:35:22Z,42.805,6.029,13.3019,4.60079,2470.787,2023-3-30T03:38:10Z
2023-03-30T01:38:25Z,42.805,6.029,13.3019,4.60079,2470.81,2023-3-30T03:41:13Z
2023-03-30T01:41:28Z,42.805,6.029,13.3022,4.60079,2470.81,2023-3-30T03:44:16Z
2023-03-30T01:44:31Z,42.805,6.029,13.3020,4.60079,2470.787,2023-3-30T03:47:19Z
2023-03-30T01:47:34Z,42.805,6.029,13.3021,4.60079,2470.763,2023-3-30T03:50:22Z
2023-03-30T01:50:38Z,42.805,6.029,13.3015,4.60078,2470.8,2023-3-30T03:53:25Z
2023-03-30T01:53:41Z,42.805,6.029,13.3022,4.60079,2470.8,2023-3-30T03:56:28Z
2023-03-30T01:56:44Z,42.805,6.029,13.3021,4.60079,2470.787,2023-3-30T03:59:31Z
2023-03-30T01:59:47Z,42.805,6.029,13.3016,4.60079,2470.787,2023-3-30T04:02:35Z
2023-03-30T02:02:50Z,42.805,6.029,13.3021,4.60078,2470.787,2023-3-30T04:05:38Z
2023-03-30T02:05:53Z,42.805,6.029,13.3019,4.60079,2470.787,2023-3-30T04:08:41Z
2023-03-30T02:08:56Z,42.805,6.029,13.3022,4.60079,2470.787,2023-3-30T04:11:44Z
2023-03-30T02:11:59Z,42.805,6.029,13.3021,4.60078,2470.787,2023-3-30T04:14:47Z
2023-03-30T02:15:02Z,42.805,6.029,13.3019,4.60079,2470.8,2023-3-30T04:17:50Z
2023-03-30T02:18:05Z,42.805,6.029,13.3019,4.60079,2470.787,2023-3-30T04:20:53Z
2023-03-30T02:21:08Z,42.805,6.029,13.3017,4.60079,2470.787,2023-3-30T04:23:56Z
2023-03-30T02:24:11Z,42.805,6.029,13.3020,4.60078,2470.833,2023-3-30T04:26:59Z
2023-03-30T02:27:15Z,42.805,6.029,13.3019,4.60079,2470.857,2023-3-30T04:30:02Z
2023-03-30T02:30:18Z,42.805,6.029,13.3018,4.60079,2470.787,2023-3-30T04:33:05Z
2023-03-30T02:33:21Z,42.805,6.029,13.3022,4.60079,2470.787,2023-3-30T04:36:08Z
2023-03-30T02:36:24Z,42.805,6.029,13.3019,4.60079,2470.787,2023-3-30T04:39:11Z
2023-03-30T02:39:27Z,42.805,6.029,13.3019,4.60078,2470.824,2023-3-30T04:42:15Z
2023-03-30T02:42:30Z,42.805,6.029,13.3021,4.60078,2470.787,2023-3-30T04:45:18Z
2023-03-30T02:45:33Z,42.805,6.029,13.3015,4.60078,2470.787,2023-3-30T04:48:21Z
2023-03-30T02:48:36Z,42.805,6.029,13.3021,4.60077,2470.833,2023-3-30T04:51:24Z
2023-03-30T02:51:39Z,42.805,6.029,13.3022,4.60078,2470.787,2023-3-30T04:54:27Z
2023-03-30T02:54:42Z,42.805,6.029,13.3021,4.60078,2470.81,2023-3-30T04:57:30Z
2023-03-30T02:57:45Z,42.805,6.029,13.3022,4.60077,2470.81,2023-3-30T05:00:33Z
2023-03-30T03:00:48Z,42.805,6.029,13.3022,4.60078,2470.763,2023-3-30T05:03:36Z
2023-03-30T03:03:52Z,42.805,6.029,13.3019,4.60078,2470.81,2023-3-30T05:06:39Z
2023-03-30T03:06:55Z,42.805,6.029,13.3019,4.60078,2470.8,2023-3-30T05:09:42Z
2023-03-30T03:09:58Z,42.805,6.029,13.3022,4.60077,2470.787,2023-3-30T05:12:45Z
2023-03-30T03:13:01Z,42.805,6.029,13.3017,4.60078,2470.81,2023-3-30T05:15:48Z
2023-03-30T03:16:04Z,42.805,6.029,13.3021,4.60077,2470.81,2023-3-30T05:18:52Z
2023-03-30T03:19:07Z,42.805,6.029,13.3018,4.60077,2470.833,2023-3-30T05:21:55Z
2023-03-30T03:22:10Z,42.805,6.029,13.3019,4.60078,2470.763,2023-3-30T05:24:58Z
2023-03-30T03:25:13Z,42.805,6.029,13.3018,4.60077,2470.857,2023-3-30T05:28:01Z
2023-03-30T03:28:16Z,42.805,6.029,13.3020,4.60078,2470.763,2023-3-30T05:31:04Z
2023-03-30T03:31:19Z,42.805,6.029,13.3019,4.60078,2470.81,2023-3-30T05:34:07Z
2023-03-30T03:34:22Z,42.805,6.029,13.3019,4.60078,2470.81,2023-3-30T05:37:10Z
2023-03-30T03:37:25Z,42.805,6.029,13.3021,4.60078,2470.824,2023-3-30T05:40:13Z
2023-03-30T03:40:29Z,42.805,6.029,13.3021,4.60079,2470.8,2023-3-30T05:43:16Z
2023-03-30T03:43:32Z,42.805,6.029,13.3025,4.60077,2470.847,2023-3-30T05:46:19Z
2023-03-30T03:46:35Z,42.805,6.029,13.3017,4.60077,2470.787,2023-3-30T05:49:22Z
2023-03-30T03:49:38Z,42.805,6.029,13.3019,4.60077,2470.787,2023-3-30T05:52:25Z
2023-03-30T03:52:41Z,42.805,6.029,13.3021,4.60078,2470.824,2023-3-30T05:55:29Z
2023-03-30T03:55:44Z,42.805,6.029,13.3019,4.60077,2470.81,2023-3-30T05:58:32Z
2023-03-30T03:58:47Z,42.805,6.029,13.3021,4.60079,2470.81,2023-3-30T06:01:35Z
2023-03-30T04:01:50Z,42.805,6.029,13.3021,4.60078,2470.81,2023-3-30T06:04:38Z
2023-03-30T04:04:53Z,42.805,6.029,13.3021,4.60078,2470.833,2023-3-30T06:07:41Z
2023-03-30T04:07:56Z,42.805,6.029,13.3020,4.60077,2470.81,2023-3-30T06:10:44Z
2023-03-30T04:10:59Z,42.805,6.029,13.3021,4.60077,2470.824,2023-3-30T06:13:47Z
2023-03-30T04:14:02Z,42.805,6.029,13.3020,4.60079,2470.81,2023-3-30T06:16:50Z
2023-03-30T04:17:06Z,42.805,6.029,13.3016,4.60078,2470.81,2023-3-30T06:19:53Z
2023-03-30T04:20:09Z,42.805,6.029,13.3017,4.60077,2470.824,2023-3-30T06:22:56Z
2023-03-30T04:23:12Z,42.805,6.029,13.3020,4.60078,2470.833,2023-3-30T06:25:59Z
2023-03-30T04:26:15Z,42.805,6.029,13.3019,4.60077,2470.81,2023-3-30T06:29:03Z
2023-03-30T04:29:18Z,42.805,6.029,13.3017,4.60077,2470.787,2023-3-30T06:32:06Z
2023-03-30T04:32:21Z,42.805,6.029,13.3019,4.60078,2470.81,2023-3-30T06:35:09Z
2023-03-30T04:35:24Z,42.805,6.029,13.3021,4.60077,2470.81,2023-3-30T06:38:12Z
2023-03-30T04:38:27Z,42.805,6.029,13.3021,4.60078,2470.824,2023-3-30T06:41:15Z
2023-03-30T04:41:30Z,42.805,6.029,13.3019,4.60077,2470.847,2023-3-30T06:44:18Z
2023-03-30T04:44:33Z,42.805,6.029,13.3016,4.60077,2470.847,2023-3-30T06:47:21Z
2023-03-30T04:47:36Z,42.805,6.029,13.3020,4.60077,2470.824,2023-3-30T06:50:24Z
2023-03-30T04:50:39Z,42.805,6.029,13.3020,4.60077,2470.787,2023-3-30T06:53:27Z
2023-03-30T04:53:43Z,42.805,6.029,13.3019,4.60077,2470.81,2023-3-30T06:56:30Z
2023-03-30T04:56:46Z,42.805,6.029,13.3017,4.60077,2470.787,2023-3-30T06:59:33Z
2023-03-30T04:59:49Z,42.805,6.029,13.3021,4.60078,2470.81,2023-3-30T07:02:36Z
2023-03-30T05:02:52Z,42.805,6.029,13.3017,4.60077,2470.81,2023-3-30T07:05:40Z
2023-03-30T05:05:55Z,42.805,6.029,13.3018,4.60077,2470.787,2023-3-30T07:08:43Z
2023-03-30T05:08:58Z,42.805,6.029,13.3019,4.60077,2470.81,2023-3-30T07:11:46Z
2023-03-30T05:12:01Z,42.805,6.029,13.3019,4.60077,2470.787,2023-3-30T07:14:49Z
2023-03-30T05:15:04Z,42.805,6.029,13.3019,4.60077,2470.763,2023-3-30T07:17:52Z
2023-03-30T05:18:07Z,42.805,6.029,13.3020,4.60077,2470.8,2023-3-30T07:20:55Z
2023-03-30T05:21:10Z,42.805,6.029,13.3019,4.60077,2470.787,2023-3-30T07:23:58Z
2023-03-30T05:24:13Z,42.805,6.029,13.3015,4.60077,2470.81,2023-3-30T07:27:01Z
2023-03-30T05:27:16Z,42.805,6.029,13.3022,4.60077,2470.81,2023-3-30T07:30:04Z
2023-03-30T05:30:19Z,42.805,6.029,13.3017,4.60077,2470.787,2023-3-30T07:33:07Z
2023-03-30T05:33:23Z,42.805,6.029,13.3019,4.60077,2470.763,2023-3-30T07:36:10Z
2023-03-30T05:36:26Z,42.805,6.029,13.3021,4.60077,2470.81,2023-3-30T07:39:13Z
2023-03-30T05:39:29Z,42.805,6.029,13.3019,4.60078,2470.787,2023-3-30T07:42:17Z
2023-03-30T05:42:32Z,42.805,6.029,13.3019,4.60077,2470.763,2023-3-30T07:45:20Z
2023-03-30T05:45:35Z,42.805,6.029,13.3015,4.60077,2470.824,2023-3-30T07:48:23Z
2023-03-30T05:48:38Z,42.805,6.029,13.3017,4.60076,2470.824,2023-3-30T07:51:26Z
2023-03-30T05:51:41Z,42.805,6.029,13.3019,4.60076,2470.787,2023-3-30T07:54:29Z
2023-03-30T05:54:44Z,42.805,6.029,13.3016,4.60077,2470.796,2023-3-30T07:57:32Z
2023-03-30T05:57:47Z,42.805,6.029,13.3020,4.60076,2470.81,2023-3-30T08:00:35Z
2023-03-30T06:00:50Z,42.805,6.029,13.3015,4.60077,2470.81,2023-3-30T08:03:38Z
2023-03-30T06:03:53Z,42.805,6.029,13.3022,4.60077,2470.81,2023-3-30T08:06:41Z
2023-03-30T06:06:56Z,42.805,6.029,13.3019,4.60076,2470.8,2023-3-30T08:09:44Z
2023-03-30T06:10:00Z,42.805,6.029,13.3016,4.60077,2470.81,2023-3-30T08:12:47Z
2023-03-30T06:13:03Z,42.805,6.029,13.3021,4.60077,2470.81,2023-3-30T08:15:50Z
2023-03-30T06:16:06Z,42.805,6.029,13.3021,4.60077,2470.787,2023-3-30T08:18:54Z
2023-03-30T06:19:09Z,42.805,6.029,13.3018,4.60076,2470.777,2023-3-30T08:21:57Z
2023-03-30T06:22:12Z,42.805,6.029,13.3021,4.60076,2470.8,2023-3-30T08:25:00Z
2023-03-30T06:25:15Z,42.805,6.029,13.3015,4.60076,2470.847,2023-3-30T08:28:03Z
2023-03-30T06:28:18Z,42.805,6.029,13.3016,4.60076,2470.824,2023-3-30T08:31:06Z
2023-03-30T06:31:21Z,42.805,6.029,13.3017,4.60077,2470.787,2023-3-30T08:34:09Z
2023-03-30T06:34:24Z,42.805,6.029,13.3015,4.60075,2470.81,2023-3-30T08:37:12Z
2023-03-30T06:37:27Z,42.805,6.029,13.3019,4.60075,2470.763,2023-3-30T08:40:15Z
2023-03-30T06:40:30Z,42.805,6.029,13.3019,4.60075,2470.787,2023-3-30T08:43:18Z
2023-03-30T06:43:33Z,42.805,6.029,13.3018,4.60075,2470.8,2023-3-30T08:46:21Z
2023-03-30T06:46:37Z,42.805,6.029,13.3014,4.60075,2470.8,2023-3-30T08:49:24Z
2023-03-30T06:49:40Z,42.805,6.029,13.3018,4.60077,2470.777,2023-3-30T08:52:27Z
2023-03-30T06:52:43Z,42.805,6.029,13.3018,4.60075,2470.8,2023-3-30T08:55:31Z
2023-03-30T06:55:46Z,42.805,6.029,13.3014,4.60074,2470.787,2023-3-30T08:58:34Z
2023-03-30T06:58:49Z,42.805,6.029,13.3015,4.60075,2470.75,2023-3-30T09:01:37Z
2023-03-30T07:01:52Z,42.805,6.029,13.3019,4.60076,2470.777,2023-3-30T09:04:40Z
2023-03-30T07:04:55Z,42.805,6.029,13.3015,4.60076,2470.787,2023-3-30T09:07:43Z
2023-03-30T07:07:58Z,42.805,6.029,13.3019,4.60076,2470.8,2023-3-30T09:10:46Z
2023-03-30T07:11:01Z,42.805,6.029,13.3020,4.60075,2470.763,2023-3-30T09:13:49Z
2023-03-30T07:14:04Z,42.805,6.029,13.3015,4.60075,2470.754,2023-3-30T09:16:52Z
2023-03-30T07:17:07Z,42.805,6.029,13.3017,4.60074,2470.74,2023-3-30T09:19:55Z
2023-03-30T07:20:10Z,42.805,6.029,13.3017,4.60076,2470.754,2023-3-30T09:22:58Z
2023-03-30T07:23:14Z,42.805,6.029,13.3016,4.60075,2470.787,2023-3-30T09:26:01Z
2023-03-30T07:26:17Z,42.805,6.029,13.3020,4.60074,2470.74,2023-3-30T09:29:04Z
2023-03-30T07:29:20Z,42.805,6.029,13.3015,4.60075,2470.754,2023-3-30T09:32:08Z
2023-03-30T07:32:23Z,42.805,6.029,13.3018,4.60075,2470.754,2023-3-30T09:35:11Z
2023-03-30T07:35:26Z,42.805,6.029,13.3015,4.60074,2470.763,2023-3-30T09:38:14Z
2023-03-30T07:38:29Z,42.805,6.029,13.3018,4.60075,2470.74,2023-3-30T09:41:17Z
2023-03-30T07:41:32Z,42.805,6.029,13.3017,4.60075,2470.763,2023-3-30T09:44:20Z
2023-03-30T07:44:35Z,42.805,6.029,13.3015,4.60076,2470.763,2023-3-30T09:47:23Z
2023-03-30T07:47:38Z,42.805,6.029,13.3019,4.60075,2470.777,2023-3-30T09:50:26Z
2023-03-30T07:50:41Z,42.805,6.029,13.3016,4.60076,2470.777,2023-3-30T09:53:29Z
2023-03-30T07:53:44Z,42.805,6.029,13.3019,4.60075,2470.763,2023-3-30T09:56:32Z
2023-03-30T07:56:47Z,42.805,6.029,13.3017,4.60075,2470.787,2023-3-30T09:59:35Z
2023-03-30T07:59:51Z,42.805,6.029,13.3019,4.60074,2470.763,2023-3-30T10:02:38Z
2023-03-30T08:02:54Z,42.805,6.029,13.3017,4.60076,2470.777,2023-3-30T10:05:41Z
2023-03-30T08:05:57Z,42.805,6.029,13.3018,4.60075,2470.74,2023-3-30T10:08:45Z
2023-03-30T08:09:00Z,42.805,6.029,13.3015,4.60075,2470.73,2023-3-30T10:11:48Z
2023-03-30T08:12:03Z,42.805,6.029,13.3016,4.60074,2470.824,2023-3-30T10:14:51Z
2023-03-30T08:15:06Z,42.805,6.029,13.3019,4.60076,2470.74,2023-3-30T10:17:54Z
2023-03-30T08:18:09Z,42.805,6.029,13.3016,4.60074,2470.763,2023-3-30T10:20:57Z
2023-03-30T08:21:12Z,42.805,6.029,13.3015,4.60075,2470.777,2023-3-30T10:24:00Z
2023-03-30T08:24:15Z,42.805,6.029,13.3014,4.60074,2470.74,2023-3-30T10:27:03Z
2023-03-30T08:27:18Z,42.805,6.029,13.3019,4.60075,2470.763,2023-3-30T10:30:06Z
2023-03-30T08:30:23Z,42.805,6.029,13.3013,4.60075,2470.74,2023-3-30T10:33:10Z
2023-03-30T08:33:26Z,42.805,6.029,13.3017,4.60075,2470.74,2023-3-30T10:36:14Z
2023-03-30T08:36:29Z,42.805,6.029,13.3018,4.60075,2470.74,2023-3-30T10:39:17Z
2023-03-30T08:39:32Z,42.805,6.029,13.3013,4.60075,2470.754,2023-3-30T10:42:20Z
2023-03-30T08:42:35Z,42.805,6.029,13.3016,4.60076,2470.754,2023-3-30T10:45:23Z
2023-03-30T08:45:38Z,42.805,6.029,13.3019,4.60074,2470.717,2023-3-30T10:48:26Z
2023-03-30T08:48:41Z,42.805,6.029,13.3013,4.60075,2470.754,2023-3-30T10:51:29Z
2023-03-30T08:51:44Z,42.805,6.029,13.3015,4.60076,2470.74,2023-3-30T10:54:32Z
2023-03-30T08:54:47Z,42.805,6.029,13.3016,4.60074,2470.74,2023-3-30T10:57:35Z
2023-03-30T08:57:50Z,42.805,6.029,13.3019,4.60074,2470.717,2023-3-30T11:00:38Z
2023-03-30T09:00:53Z,42.805,6.029,13.3018,4.60075,2470.73,2023-3-30T11:03:41Z
2023-03-30T09:03:57Z,42.805,6.029,13.3015,4.60074,2470.8,2023-3-30T11:06:44Z
2023-03-30T09:07:00Z,42.805,6.029,13.3019,4.60073,2470.717,2023-3-30T11:09:47Z
2023-03-30T09:10:03Z,42.805,6.029,13.3017,4.60074,2470.717,2023-3-30T11:12:51Z
2023-03-30T09:13:06Z,42.805,6.029,13.3019,4.60075,2470.726,2023-3-30T11:15:54Z
2023-03-30T09:16:09Z,42.805,6.029,13.3019,4.60074,2470.693,2023-3-30T11:18:57Z
2023-03-30T09:19:12Z,42.805,6.029,13.3014,4.60074,2470.73,2023-3-30T11:22:00Z
2023-03-30T09:22:15Z,42.805,6.029,13.3018,4.60074,2470.754,2023-3-30T11:25:03Z
2023-03-30T09:25:18Z,42.805,6.029,13.3019,4.60075,2470.679,2023-3-30T11:28:06Z
2023-03-30T09:28:21Z,42.805,6.029,13.3012,4.60074,2470.763,2023-3-30T11:31:09Z
2023-03-30T09:31:24Z,42.805,6.029,13.3016,4.60075,2470.703,2023-3-30T11:34:12Z
2023-03-30T09:34:27Z,42.805,6.029,13.3017,4.60074,2470.74,2023-3-30T11:37:15Z
2023-03-30T09:37:31Z,42.805,6.029,13.3015,4.60074,2470.717,2023-3-30T11:40:18Z
2023-03-30T09:40:34Z,42.805,6.029,13.3017,4.60073,2470.74,2023-3-30T11:43:21Z
2023-03-30T09:43:37Z,42.805,6.029,13.3017,4.60074,2470.74,2023-3-30T11:46:25Z
2023-03-30T09:46:40Z,42.805,6.029,13.3015,4.60074,2470.74,2023-3-30T11:49:28Z
2023-03-30T09:49:43Z,42.805,6.029,13.3014,4.60074,2470.717,2023-3-30T11:52:31Z
2023-03-30T09:52:46Z,42.805,6.029,13.3014,4.60074,2470.73,2023-3-30T11:55:34Z
2023-03-30T09:55:49Z,42.805,6.029,13.3019,4.60074,2470.73,2023-3-30T11:58:37Z
2023-03-30T09:58:52Z,42.805,6.029,13.3014,4.60073,2470.717,2023-3-30T12:01:40Z
2023-03-30T10:01:55Z,42.805,6.029,13.3016,4.60074,2470.73,2023-3-30T12:04:43Z
2023-03-30T10:04:58Z,42.805,6.029,13.3019,4.60074,2470.74,2023-3-30T12:07:46Z
2023-03-30T10:08:01Z,42.805,6.029,13.3014,4.60074,2470.73,2023-3-30T12:10:49Z
2023-03-30T10:11:04Z,42.805,6.029,13.3014,4.60074,2470.74,2023-3-30T12:13:52Z
2023-03-30T10:14:08Z,42.805,6.029,13.3011,4.60074,2470.73,2023-3-30T12:16:55Z
2023-03-30T10:17:11Z,42.805,6.029,13.3018,4.60073,2470.717,2023-3-30T12:19:59Z
2023-03-30T10:20:14Z,42.805,6.029,13.3014,4.60074,2470.763,2023-3-30T12:23:02Z
2023-03-30T10:23:17Z,42.805,6.029,13.3015,4.60073,2470.717,2023-3-30T12:26:05Z
2023-03-30T10:26:20Z,42.805,6.029,13.3019,4.60073,2470.74,2023-3-30T12:29:08Z
2023-03-30T10:29:23Z,42.805,6.029,13.3015,4.60074,2470.74,2023-3-30T12:32:11Z
2023-03-30T10:32:26Z,42.805,6.029,13.3012,4.60073,2470.717,2023-3-30T12:35:14Z
2023-03-30T10:35:29Z,42.805,6.029,13.3017,4.60074,2470.717,2023-3-30T12:38:17Z
2023-03-30T10:38:32Z,42.805,6.029,13.3013,4.60073,2470.717,2023-3-30T12:41:20Z
2023-03-30T10:41:35Z,42.805,6.029,13.3018,4.60076,2470.717,2023-3-30T12:44:23Z
2023-03-30T10:44:38Z,42.805,6.029,13.3014,4.60073,2470.717,2023-3-30T12:47:26Z
2023-03-30T10:47:42Z,42.805,6.029,13.3014,4.60072,2470.717,2023-3-30T12:50:29Z
2023-03-30T10:50:45Z,42.805,6.029,13.3019,4.60072,2470.73,2023-3-30T12:53:33Z
2023-03-30T10:53:48Z,42.805,6.029,13.3015,4.60073,2470.754,2023-3-30T12:56:36Z
2023-03-30T10:56:51Z,42.805,6.029,13.3016,4.60074,2470.693,2023-3-30T12:59:39Z
2023-03-30T10:59:54Z,42.805,6.029,13.3015,4.60073,2470.74,2023-3-30T13:02:42Z
2023-03-30T11:02:57Z,42.805,6.029,13.3015,4.60073,2470.73,2023-3-30T13:05:45Z
2023-03-30T11:06:00Z,42.805,6.029,13.3019,4.60074,2470.717,2023-3-30T13:08:48Z
2023-03-30T11:09:03Z,42.805,6.029,13.3015,4.60073,2470.693,2023-3-30T13:11:51Z
2023-03-30T11:12:06Z,42.805,6.029,13.3015,4.60073,2470.717,2023-3-30T13:14:54Z
2023-03-30T11:15:09Z,42.805,6.029,13.3012,4.60074,2470.707,2023-3-30T13:17:57Z
2023-03-30T11:18:12Z,42.805,6.029,13.3011,4.60074,2470.707,2023-3-30T13:21:00Z
2023-03-30T11:21:15Z,42.805,6.029,13.3020,4.60073,2470.74,2023-3-30T13:24:03Z
2023-03-30T11:24:19Z,42.805,6.029,13.3016,4.60075,2470.717,2023-3-30T13:27:06Z
2023-03-30T11:27:22Z,42.805,6.029,13.3019,4.60074,2470.73,2023-3-30T13:30:10Z
2023-03-30T11:30:25Z,42.805,6.029,13.3013,4.60074,2470.74,2023-3-30T13:33:13Z
2023-03-30T11:33:28Z,42.805,6.029,13.3017,4.60074,2470.693,2023-3-30T13:36:16Z
2023-03-30T11:36:31Z,42.805,6.029,13.3015,4.60075,2470.717,2023-3-30T13:39:19Z
2023-03-30T11:39:34Z,42.805,6.029,13.3012,4.60073,2470.717,2023-3-30T13:42:22Z
2023-03-30T11:42:37Z,42.805,6.029,13.3013,4.60074,2470.717,2023-3-30T13:45:25Z
2023-03-30T11:45:40Z,42.805,6.029,13.3015,4.60073,2470.693,2023-3-30T13:48:28Z
2023-03-30T11:48:43Z,42.805,6.029,13.3016,4.60074,2470.703,2023-3-30T13:51:31Z
2023-03-30T11:51:46Z,42.805,6.029,13.3013,4.60074,2470.717,2023-3-30T13:54:34Z
2023-03-30T11:54:49Z,42.805,6.029,13.3013,4.60074,2470.693,2023-3-30T13:57:37Z
2023-03-30T11:57:53Z,42.805,6.029,13.3014,4.60073,2470.717,2023-3-30T14:00:40Z
2023-03-30T12:00:56Z,42.805,6.029,13.3015,4.60074,2470.754,2023-3-30T14:03:44Z
2023-03-30T12:03:59Z,42.805,6.029,13.3014,4.60075,2470.717,2023-3-30T14:06:47Z
2023-03-30T12:07:02Z,42.805,6.029,13.3014,4.60074,2470.717,2023-3-30T14:09:50Z
2023-03-30T12:10:05Z,42.805,6.029,13.3014,4.60074,2470.717,2023-3-30T14:12:53Z
2023-03-30T12:13:08Z,42.805,6.029,13.3015,4.60074,2470.717,2023-3-30T14:15:56Z
2023-03-30T12:16:11Z,42.805,6.029,13.3014,4.60077,2470.693,2023-3-30T14:18:59Z
2023-03-30T12:19:14Z,42.805,6.029,13.3015,4.60074,2470.717,2023-3-30T14:22:02Z
2023-03-30T12:22:17Z,42.805,6.029,13.3014,4.60074,2470.74,2023-3-30T14:25:05Z
2023-03-30T12:25:20Z,42.805,6.029,13.3018,4.60074,2470.67,2023-3-30T14:28:08Z
2023-03-30T12:28:23Z,42.805,6.029,13.3014,4.60072,2470.717,2023-3-30T14:31:11Z
2023-03-30T12:31:26Z,42.805,6.029,13.3015,4.60073,2470.717,2023-3-30T14:34:14Z
2023-03-30T12:34:30Z,42.805,6.029,13.3013,4.60072,2470.717,2023-3-30T14:37:18Z
2023-03-30T12:37:33Z,42.805,6.029,13.3015,4.60073,2470.707,2023-3-30T14:40:21Z
2023-03-30T12:40:36Z,42.805,6.029,13.3015,4.60073,2470.717,2023-3-30T14:43:24Z
2023-03-30T12:43:39Z,42.805,6.029,13.3017,4.60074,2470.717,2023-3-30T14:46:27Z
2023-03-30T12:46:42Z,42.805,6.029,13.3016,4.60074,2470.717,2023-3-30T14:49:30Z
2023-03-30T12:49:45Z,42.805,6.029,13.3014,4.60074,2470.74,2023-3-30T14:52:33Z
2023-03-30T12:52:48Z,42.805,6.029,13.3016,4.60074,2470.717,2023-3-30T14:55:36Z
2023-03-30T12:55:51Z,42.805,6.029,13.3015,4.60073,2470.67,2023-3-30T14:58:39Z
2023-03-30T12:58:54Z,42.805,6.029,13.3014,4.60073,2470.73,2023-3-30T15:01:42Z
2023-03-30T13:01:57Z,42.805,6.029,13.3011,4.60073,2470.717,2023-3-30T15:04:45Z
2023-03-30T13:05:00Z,42.805,6.029,13.3014,4.60073,2470.73,2023-3-30T15:07:48Z
2023-03-30T13:08:04Z,42.805,6.029,13.3014,4.60072,2470.693,2023-3-30T15:10:52Z
2023-03-30T13:11:07Z,42.805,6.029,13.3014,4.60073,2470.717,2023-3-30T15:13:55Z
2023-03-30T13:14:10Z,42.805,6.029,13.3016,4.60074,2470.717,2023-3-30T15:16:58Z
2023-03-30T13:17:13Z,42.805,6.029,13.3012,4.60073,2470.754,2023-3-30T15:20:01Z
2023-03-30T13:20:16Z,42.805,6.029,13.3015,4.60073,2470.693,2023-3-30T15:23:04Z
2023-03-30T13:23:19Z,42.805,6.029,13.3014,4.60073,2470.693,2023-3-30T15:26:07Z
2023-03-30T13:26:22Z,42.805,6.029,13.3014,4.60074,2470.754,2023-3-30T15:29:10Z
2023-03-30T13:29:25Z,42.805,6.029,13.3014,4.60074,2470.717,2023-3-30T15:32:13Z
2023-03-30T13:32:28Z,42.805,6.029,13.3012,4.60074,2470.717,2023-3-30T15:35:16Z
2023-03-30T13:35:31Z,42.805,6.029,13.3015,4.60073,2470.74,2023-3-30T15:38:19Z
2023-03-30T13:38:34Z,42.805,6.029,13.3014,4.60073,2470.67,2023-3-30T15:41:22Z
2023-03-30T13:41:38Z,42.805,6.029,13.3012,4.60073,2470.717,2023-3-30T15:44:26Z
2023-03-30T13:44:41Z,42.805,6.029,13.3012,4.60074,2470.693,2023-3-30T15:47:29Z
2023-03-30T13:47:44Z,42.805,6.029,13.3012,4.60076,2470.693,2023-3-30T15:50:32Z
2023-03-30T13:50:47Z,42.805,6.029,13.3013,4.60073,2470.717,2023-3-30T15:53:35Z
2023-03-30T13:53:50Z,42.805,6.029,13.3013,4.60072,2470.717,2023-3-30T15:56:38Z
2023-03-30T13:56:53Z,42.805,6.029,13.3014,4.60078,2470.717,2023-3-30T15:59:41Z
2023-03-30T13:59:56Z,42.805,6.029,13.3016,4.60074,2470.717,2023-3-30T16:02:44Z
2023-03-30T14:02:59Z,42.805,6.029,13.3015,4.60079,2470.73,2023-3-30T16:05:47Z
2023-03-30T14:06:02Z,42.805,6.029,13.3015,4.60074,2470.717,2023-3-30T16:08:50Z
2023-03-30T14:09:05Z,42.805,6.029,13.3014,4.60074,2470.73,2023-3-30T16:11:53Z
2023-03-30T14:12:08Z,42.805,6.029,13.3009,4.60074,2470.73,2023-3-30T16:14:56Z
2023-03-30T14:15:12Z,42.805,6.029,13.3015,4.60075,2470.717,2023-3-30T16:18:00Z
2023-03-30T14:18:15Z,42.805,6.029,13.3014,4.60076,2470.693,2023-3-30T16:21:03Z
2023-03-30T14:21:18Z,42.805,6.029,13.3014,4.60076,2470.693,2023-3-30T16:24:06Z
2023-03-30T14:24:21Z,42.805,6.029,13.3012,4.60079,2470.74,2023-3-30T16:27:09Z
2023-03-30T14:27:24Z,42.805,6.029,13.3011,4.60081,2470.693,2023-3-30T16:30:12Z
2023-03-30T14:30:26Z,42.805,6.029,13.3015,4.60079,2470.717,2023-3-30T16:33:14Z
2023-03-30T14:33:29Z,42.805,6.029,13.3021,4.60079,2470.693,2023-3-30T16:36:17Z
2023-03-30T14:36:32Z,42.805,6.029,13.3011,4.60074,2470.73,2023-3-30T16:39:20Z
2023-03-30T14:39:35Z,42.805,6.029,13.3015,4.60080,2470.717,2023-3-30T16:42:23Z
2023-03-30T14:42:38Z,42.805,6.029,13.3013,4.60074,2470.693,2023-3-30T16:45:26Z
2023-03-30T14:45:42Z,42.805,6.029,13.3018,4.60077,2470.693,2023-3-30T16:48:30Z
2023-03-30T14:48:45Z,42.805,6.029,13.3017,4.60075,2470.717,2023-3-30T16:51:33Z
2023-03-30T14:51:48Z,42.805,6.029,13.3017,4.60078,2470.717,2023-3-30T16:54:36Z
2023-03-30T14:54:51Z,42.805,6.029,13.3011,4.60076,2470.707,2023-3-30T16:57:39Z
2023-03-30T14:57:54Z,42.805,6.029,13.3017,4.60077,2470.717,2023-3-30T17:00:42Z
2023-03-30T15:00:57Z,42.805,6.029,13.3015,4.60087,2470.693,2023-3-30T17:03:45Z
2023-03-30T15:04:00Z,42.805,6.029,13.3015,4.60089,2470.707,2023-3-30T17:06:48Z
2023-03-30T15:07:03Z,42.805,6.029,13.3024,4.60093,2470.717,2023-3-30T17:09:51Z
2023-03-30T15:10:06Z,42.805,6.029,13.3014,4.60077,2470.717,2023-3-30T17:12:54Z
2023-03-30T15:13:09Z,42.805,6.029,13.3014,4.60084,2470.754,2023-3-30T17:15:57Z